EHI
0 0 0 0 0 0 0 0 0 0 0 0 0 0 0 0 0 0 0 0 0 0 0 0 0 0 0 0 0 0 0 0 0 0 0 0 0 0
0 0 0 0 0 0 0 0 0 0 0 0 0 0 0 0 0 0 0 0 0 0 0 0 0 0 0 0 0 0 0 0 0 0 0 0 0 0
0 0 0 0 0 0 0 0 0 0 0 0 0 0 0 0 0 0 0 0 0 0 0 0 0 0 0 0 0 0 0 0 0 0 0 0 0 0
0 0 0 0 0 0 0 0 0 0 0 0 0 0 0 0 0 0 0 0 0 0 0 0 0 0 0 0 0 0 0 0 0 0 0 0 0 0
0 0 0 0 0 0 0 0 0 0 0 0 0 0 0 0 0 0 0 0 0 0 0 0 0 0 0 0 0 0 0 0 0 0 0 0 0 0
0 0 0 0 0 0 0 0 0 0 0 0 0 0 0 0 0 0 0 0 0 0 0 0 0 0 0 0 0 0 0 0 0 0 0 0 0 0
0 0 0 0 0 0 0 0 0 0 0 0 0 0 0 0 0 0 0 0 0 0 0 0 0 0 0 0 0 0 0 0 0 0 0 0 0 0
0 0 0 0 0 0 0 0 0 0 0 0 0 0 0 0 0 0 0 0 0 0 0 0 0 0 0 0 0 0 0 0 0 0 0 0 0 0
0 0 0 0 0 0 0 0 0 0 0 0 0 0 0 0 0 0 0 0 0 0 0 0 0 0 0 0 0 0 0 0 0 0 0 0 0 0
0 0 0 0 0 0 0 0 0 0 0 0 0 0 0 0 0 0 0 0 0 0 0 0 0 0 0 0 0 0 0 0 0 0 0 0 0 0
0 0 0 0 0 0 0 0 0 0 0 0 0 0 0 0 0 0 0 0 0 0 0 0 0 0 0 0 0 0 0 0 0 0 0 0 0 0
0 0 0 0 0 0 0 0 0 0 0 0 0 0 0 0 0 0 0 0 0 0 0 0 0 0 0 0 0 0 0 0 0 0 0 0 0 0
0 0 0 0 0 0 0 0 0 0 0 0 0 0 0 0 0 0 0 0 0 0 0 0 0 0 0 0 0 0 0 0 0 0 0 0 0 0
0 0 0 0 0 0 0 0 0 0 0 0 0 0 0 0 0 0 0 0 0 0 0 0 0 0 0 0 0 0 0 0 0 0 0 0 0 0
0 0 0 0 0 0 0 0 0 0 0 0 0 0 0 0 0 0 0 0 0 0 0 0 0 0 0 0 0 0 0 0 0 0 0 0 0 0
0 0 0 0 0 0 0 0 0 0 0 0 0 0 0 0 0 0 0 0 0 0 0 0 0 0 0 0 0 0 0 0 0 0 0 0 0 0
0 0 0 0 0 0 0 0 0 0 0 0 0 0 0 0 0 0 0 0 0 0 0 0 0 0 0 0 0 0 0 0 0 0 0 0 0 0
0 0 0 0 0 0 0 0 0 0 0 0 0 0 0 0 0 0 0 0 0 0 0 0 0 0 0 0 0 0 0 0 0 0 0 0 0 0
0 0 0 0 0 0 0 0 0 0 0 0 0 0 0 0 0 0 0 0 0 0 0 0 0 0 0 0 0 0 0 0 0 0 0 0 0 0
0 0 0 0 0 0 0 0 0 0 0 0 0 0 0 0 0 0 0 0 0 0 0 0 0 0 0 0 0 0 0 0 0 0 0 0 0 0
0 0 0 0 0 0 0 0 0 0 0 0 0 0 0 0 0 0 0 0 0 0 0 0 0 0 0 0 0 0 0 0 0 0 0 0 0 0
0 0 0 0 0 0 0 0 0 0 0 0 0 0 0 0 0 0 0 0 0 0 0 0 0 0 0 0 0 0 0 0 0 0 0 0 0 0
0 0 0 0 0 0 0 0 0 0 0 0 0 0 0 0 0 0 0 0 0 0 0 0 0 0 0 0 0 0 0 0 0 0 0 0 0 0
Wind_Speed
2 1 1 1 0 0 1 2 3 1 2 2 1 2 1 1 1 0 0 1 1 1 1 1 1 1 1 1 1 2 2 2 2 3 4 5 6 8
1 2 2 1 1 1 0 0 1 3 2 2 2 1 1 1 1 0 1 2 2 2 2 2 2 1 1 1 2 2 2 2 3 4 4 4 4 5
3 2 2 1 1 1 1 0 0 1 2 1 1 1 1 1 2 1 1 1 1 3 3 3 3 3 3 3 2 2 2 3 3 4 5 5 6 6
3 2 2 2 2 1 1 1 0 0 2 1 1 1 1 2 1 1 1 1 1 2 4 4 4 3 3 3 3 3 3 3 3 3 4 5 5 6
2 2 2 2 2 1 1 1 0 0 1 2 1 1 1 1 1 1 1 1 1 1 2 3 4 4 4 4 4 4 4 5 5 5 6 6 6 7
2 2 1 1 1 1 1 0 0 0 0 1 1 1 1 1 0 1 1 1 1 1 1 2 2 3 4 4 5 5 6 6 7 7 7 7 7 7
3 2 2 2 1 1 1 1 0 0 0 0 0 0 1 1 1 1 1 1 1 1 0 1 1 1 2 4 5 6 7 7 8 8 8 8 7 7
2 3 2 3 4 4 2 1 2 2 1 1 1 2 2 2 1 1 1 0 1 1 1 1 1 1 2 2 4 6 7 7 7 7 8 8 8 8
2 2 2 3 3 2 3 3 2 2 3 3 3 3 3 3 2 1 2 2 2 2 1 1 1 2 3 3 6 7 7 7 7 7 7 8 8 8
2 1 1 2 3 2 2 2 3 2 3 2 4 4 4 4 4 3 2 1 2 1 2 1 2 2 3 2 5 6 7 7 7 7 7 8 8 9
3 2 1 2 3 2 1 2 3 4 3 2 3 4 5 5 4 2 1 1 1 2 1 2 1 1 2 3 4 6 6 7 7 7 8 9 9 8
3 3 3 3 3 2 1 1 2 3 4 5 4 3 2 2 3 4 4 3 1 2 2 2 1 0 2 3 2 2 3 6 8 8 9 10 9 4
2 3 3 4 4 4 1 1 3 3 2 2 3 3 2 2 1 2 3 3 3 3 3 3 2 1 2 3 3 2 3 3 3 5 8 10 10 7
2 3 3 5 5 5 3 3 4 2 1 1 2 2 2 2 2 2 3 4 4 5 4 4 3 3 2 2 3 3 2 3 3 4 4 6 8 10
2 4 5 7 7 4 5 5 3 1 0 1 2 2 2 2 2 2 2 2 3 5 5 4 4 3 3 3 3 3 3 4 3 4 4 4 4 4
3 4 5 6 4 4 4 3 2 2 2 2 2 2 2 2 1 1 1 1 2 4 4 4 5 5 3 4 4 4 4 4 3 4 4 4 4 4
2 2 2 3 3 3 3 3 2 1 1 2 2 2 2 2 3 2 1 1 1 2 4 4 2 3 6 4 4 5 5 4 5 4 3 4 5 5
1 2 3 3 3 3 3 3 3 3 3 2 2 2 3 3 3 2 2 2 3 3 4 4 2 2 2 4 7 6 5 5 5 4 3 3 6 6
1 3 3 4 4 4 3 3 3 4 3 3 3 3 3 3 3 3 3 2 3 4 4 3 2 2 2 5 7 6 5 4 3 3 4 4 5 6
3 4 5 5 4 4 4 4 4 4 3 3 4 4 3 3 3 4 3 4 4 4 4 3 3 4 5 5 4 5 6 5 3 4 4 3 5 6
4 5 5 5 5 5 5 4 4 4 4 3 3 4 4 3 4 4 4 5 4 3 4 5 6 6 3 1 2 5 5 6 7 5 4 3 3 3
6 6 6 6 5 5 5 4 4 4 4 4 4 4 4 3 4 5 4 4 4 4 5 5 5 2 1 3 5 6 6 5 6 8 8 7 4 4
6 6 6 6 6 5 5 5 6 5 5 4 4 5 4 4 4 4 4 4 4 5 5 4 3 2 3 4 5 5 7 6 4 3 5 8 11 12
Wind_Direction
338 348 330 299 287 206 178 172 166 207 271 284 306 311 316 322 315 37 283 247 201 215 225 224 225 224 191 202 202 191 194 196 189 198 208 214 221 225
338 3 3 338 351 7 139 192 168 172 212 251 259 274 297 306 299 312 263 252 235 226 220 210 200 183 184 183 178 177 194 208 206 210 216 220 224 229
352 13 3 5 14 5 19 24 78 157 188 266 280 286 296 279 309 319 291 263 256 231 220 214 208 206 212 212 203 204 214 223 217 225 233 236 237 240
356 14 356 11 13 359 20 17 352 187 167 193 282 290 273 258 271 286 287 254 245 235 224 220 216 214 217 221 219 219 223 231 230 233 239 241 237 238
358 11 353 25 7 353 19 28 3 0 149 170 242 275 288 270 311 303 303 306 260 234 225 228 226 224 226 231 235 235 238 243 243 240 242 242 240 241
6 4 356 20 344 326 2 338 358 27 112 163 221 273 290 281 224 275 311 305 286 276 256 239 232 236 234 234 236 240 245 248 248 245 242 244 243 242
360 0 358 353 338 301 249 233 172 160 178 181 232 296 289 260 242 242 246 300 307 269 289 286 259 258 254 250 245 247 247 248 249 247 244 242 241 240
347 345 346 355 353 352 338 295 217 193 206 205 217 232 248 234 227 214 189 36 294 276 148 281 200 252 260 247 254 251 250 251 252 249 246 244 242 242
318 328 342 349 353 351 344 340 322 263 220 198 213 235 229 220 195 211 210 210 233 236 140 270 271 259 259 255 251 250 249 250 250 249 247 246 244 242
332 313 327 330 334 342 342 341 330 315 269 231 225 239 234 220 198 196 196 222 289 273 159 215 266 263 267 262 256 248 249 249 250 253 253 253 252 250
340 342 349 337 327 347 11 350 341 331 332 305 272 259 248 236 200 154 151 119 330 294 208 179 245 278 284 272 264 252 249 253 255 255 254 253 254 256
335 334 333 329 325 342 23 8 339 317 331 341 345 337 304 261 215 183 178 165 181 259 242 179 226 236 305 288 277 266 258 260 258 257 255 255 256 248
319 318 316 320 323 326 320 243 262 281 310 328 333 330 332 322 281 198 189 179 185 230 225 174 199 197 214 280 295 266 242 252 256 258 255 255 252 230
284 290 298 313 315 317 312 292 292 303 322 341 343 321 310 299 285 253 216 215 218 227 229 181 195 196 193 249 278 288 272 249 239 252 256 261 257 243
266 277 294 309 317 313 300 297 305 307 342 332 299 284 268 265 282 298 288 254 257 252 240 209 201 204 187 211 242 258 280 280 246 244 256 251 251 243
307 308 309 308 306 297 298 301 287 241 211 234 258 271 289 301 291 273 282 304 318 305 285 238 214 199 211 228 228 253 250 257 271 257 253 263 260 243
316 333 339 336 330 315 307 295 287 285 262 253 251 269 281 284 280 270 258 255 247 276 296 300 256 214 216 216 237 251 255 258 257 259 256 271 268 255
11 313 302 299 292 290 288 288 282 267 256 249 249 250 253 256 268 277 262 249 258 263 267 275 300 334 333 276 227 237 252 253 259 250 227 246 271 267
238 270 273 276 276 274 266 256 258 258 252 248 247 248 248 250 250 262 266 262 262 264 265 261 241 210 256 281 282 229 220 252 259 261 243 231 250 265
239 256 265 266 261 259 258 254 256 260 251 248 250 250 246 244 252 258 258 254 260 266 275 274 248 224 219 239 260 275 234 221 232 250 258 254 258 271
253 252 255 257 255 252 251 249 248 252 254 250 250 247 241 232 245 253 256 264 259 258 263 265 260 251 232 220 288 282 273 239 222 223 233 248 271 286
252 252 255 255 252 251 251 252 250 251 253 249 248 249 245 237 243 252 254 257 255 250 254 263 275 277 203 230 259 269 277 283 268 254 238 215 207 230
246 246 248 251 249 247 245 246 244 245 244 240 243 247 244 243 246 246 250 253 258 263 263 270 277 263 246 241 252 264 271 276 280 285 275 256 241 242